This demonstration page uses our WeatherBlox Daily Observations layout. Learn more.

Left ArrowRight Arrow

38.20091, -84.87328

Hourly Observations for May 17, 2022

Temp ( °F °C ) Dew Point ( °F °C ) Humidity (%) Winds ( mph kmh ) Pressure ( in mb ) Visibility ( mi km ) Precip ( " mm )
12:53 am 00:53 Clear 59 15 49 9.4 69 69 WSW 7 11 29.94 1014 10 16 0.00 0.00
1:53 am 01:53 Clear 58 14.4 49 9.4 72 72 WSW 5 7 29.93 1014 10 16 0.00 0.00
2:53 am 02:53 Clear 58 14.4 48 8.9 70 70 WSW 6 9 29.93 1014 10 16 0.00 0.00
3:53 am 03:53 Clear 57 13.9 48 8.9 72 72 WSW 5 7 29.93 1014 10 16 0.00 0.00
4:53 am 04:53 Clear 56 13.3 47 8.3 72 72 WSW 6 9 29.93 1014 10 16 0.00 0.00
5:53 am 05:53 Clear 56 13.3 47 8.3 72 72 WSW 5 7 29.95 1014 10 16 0.00 0.00
6:53 am 06:53 Sunny 54 12.2 47 8.3 77 77 SW 6 9 29.97 1015 10 16 0.00 0.00
7:53 am 07:53 Sunny 59 15 50 10 72 72 WSW 6 9 29.99 1016 10 16 0.00 0.00
8:53 am 08:53 Sunny 66 18.9 51 10.6 59 59 WSW 6 9 29.99 1016 10 16 0.00 0.00
9:53 am 09:53 Sunny 71 21.7 51 10.6 49 49 WSW 7 11 30.01 1016 10 16 0.00 0.00
10:53 am 10:53 Sunny 76 24.4 51 10.6 42 42 W 6 9 30.03 1017 10 16 0.00 0.00
11:53 am 11:53 Sunny 78 25.6 50 10 37 37 W 10 17 30.03 1017 10 16 0.00 0.00
12:53 pm 12:53 Sunny 80 26.7 48 8.9 33 33 WNW 12 19 30.03 1017 10 16 0.00 0.00
1:53 pm 13:53 Sunny 80 26.7 48 8.9 33 33 W 10 17 30.01 1016 10 16 0.00 0.00
2:53 pm 14:53 Sunny 82 27.8 48 8.9 31 31 W 9 15 30.00 1016 10 16 0.00 0.00
3:53 pm 15:53 Mostly Sunny 83 28.3 48 8.9 30 30 VRB 6 9 29.98 1015 10 16 0.00 0.00
4:53 pm 16:53 Partly Cloudy 81 27.2 48 8.9 32 32 WNW 5 7 29.97 1015 10 16 0.00 0.00
5:53 pm 17:53 Mostly Cloudy 83 28.3 49 9.4 31 31 W 6 9 29.96 1015 10 16 0.00 0.00
6:53 pm 18:53 Mostly Sunny 81 27.2 49 9.4 33 33 WNW 5 7 29.96 1014 10 16 0.00 0.00
7:53 pm 19:53 Mostly Cloudy 80 26.7 50 10 35 35 WNW 3 6 29.96 1015 10 16 0.00 0.00
8:53 pm 20:53 Mostly Cloudy 73 22.8 56 13.3 55 55 Calm 29.96 1015 10 16 0.00 0.00
9:53 pm 21:53 Mostly Clear 67 19.4 57 13.9 71 71 Calm 29.98 1015 10 16 0.00 0.00
10:53 pm 22:53 Mostly Clear 67 19.4 55 12.8 66 66 Calm 29.98 1015 10 16 0.00 0.00
11:53 pm 23:53 Clear 64 17.8 55 12.8 73 73 NNW 3 6 29.99 1016 10 16 0.00 0.00

Powered by AerisWeather